User: anonymous   Login
Location: Unspecified
(0.0000°N, 0.0000°E)
Time: 03:35:24
(UTC+00:00)
Language:

NOSS 2-2 (E) - Orbit

View from above orbital plane
View from above orbital plane
View from above satellite
View from above satellite

Ground track
Ground track

The orbit data is extracted from the following two-line orbital elements,

1 21809U 91076E   16124.89457963 0.00000300  00000-0  11477-3 0    07
2 21809  63.3600  75.1434 0713000  17.8723 342.1277 13.41261239    01
Epoch (UTC): 03 May 2016 21:28:11
Eccentricity: 0.0713000
inclination: 63.3600°
perigee height: 571 km
apogee height: 1638 km
right ascension of ascending node: 75.1434°
argument of perigee: 17.8723°
revolutions per day: 13.41261239
mean anomaly at epoch: 342.1277°
orbit number at epoch: 0

The dashed part of the orbit path shows where the satellite is in the earth's shadow,  

DLR